Sonora, TX

1:11 PM CDT on October 20, 2017 (GMT -0500)
Sonora

Weather History for KSOA - April, 2014

Change the Weather History Date:

Wednesday, April 9, 2014

  Actual Average (KOZA) Record (KOZA)
Temperature  
Mean Temperature 62 °F -  
Max Temperature 86 °F 78 °F 91 °F (2013)
Min Temperature 37 °F 46 °F 35 °F (2014)
Degree Days  
Heating Degree Days 4    
Growing Degree Days 12 (Base 50)    
Moisture  
Dew Point 30 °F    
Average Humidity 37    
Maximum Humidity 81    
Minimum Humidity 11    
Precipitation  
Precipitation 0.00 in - - ()
Sea Level Pressure  
Sea Level Pressure 30.16 in    
Wind  
Wind Speed 5 mph (South)    
Max Wind Speed 20 mph    
Max Gust Speed 24 mph    
Visibility 10 miles    
Events      
Averages and records for this station are not official NWS values.
T = Trace of Precipitation, MM = Missing Value Source: NWS Daily Summary

Daily Weather History Graph

Daily Weather History Graph

Search for Another Location

Airport or City:

Trip Planner

Search our weather history database for the weather conditions in past years. The results will help you decide how hot, cold, wet, or windy it might be!

Date:

Astronomy

Apr. 09, 2014 Rise Set
Actual Time 7:22 AM CDT 8:06 PM CDT
Civil Twilight 6:57 AM CDT 8:31 PM CDT
Nautical Twilight 6:28 AM CDT 9:00 PM CDT
Astronomical Twilight 5:59 AM CDT 9:29 PM CDT
Moon 3:16 PM CDT (4/9) 3:51 AM CDT (4/9)
Length of Visible Light 13h 33m
Length of Day
12h 44m
Waxing Gibbous, 72% of the Moon is Illuminated
Apr 9
Waxing Gibbous
Apr 15
Full
Apr 22
Last Quarter
Apr 29
New
May 6
First Quarter

Hourly Weather History & Observations

Time (CDT) Temp. Windchill Dew Point Humidity Pressure Visibility Wind Dir Wind Speed Gust Speed Precip Events Conditions
12:15 AM 46.4 °F 45.2 °F 32.0 °F 57% 30.23 in 10.0 mi NNE 3.5 mph - N/A   Clear
12:35 AM 46.4 °F - 32.0 °F 57% 30.23 in 10.0 mi Calm Calm - N/A   Clear
12:55 AM 44.6 °F - 32.0 °F 61% 30.23 in 10.0 mi Calm Calm - N/A   Clear
1:15 AM 44.6 °F - 32.0 °F 61% 30.24 in 10.0 mi Calm Calm - N/A   Clear
1:35 AM 44.6 °F - 32.0 °F 61% 30.23 in 10.0 mi Calm Calm - N/A   Clear
1:55 AM 44.6 °F - 32.0 °F 61% 30.22 in 10.0 mi Calm Calm - N/A   Clear
2:15 AM 42.8 °F 41.1 °F 32.0 °F 66% 30.23 in 10.0 mi NNE 3.5 mph - N/A   Clear
2:35 AM 42.8 °F - 32.0 °F 66% 30.23 in 10.0 mi Calm Calm - N/A   Clear
2:55 AM 42.8 °F - 32.0 °F 66% 30.23 in 10.0 mi Calm Calm - N/A   Clear
3:15 AM 42.8 °F - 32.0 °F 66% 30.22 in 10.0 mi Calm Calm - N/A   Clear
3:35 AM 42.8 °F - 32.0 °F 66% 30.21 in 10.0 mi Calm Calm - N/A   Clear
3:55 AM 39.2 °F 37.0 °F 32.0 °F 75% 30.21 in 10.0 mi NNE 3.5 mph - N/A   Clear
4:15 AM 39.2 °F - 32.0 °F 75% 30.20 in 10.0 mi Calm Calm - N/A   Clear
4:35 AM 39.2 °F - 32.0 °F 75% 30.21 in 10.0 mi Calm Calm - N/A   Clear
4:55 AM 37.4 °F 34.9 °F 32.0 °F 81% 30.21 in 10.0 mi NNE 3.5 mph - N/A   Clear
5:15 AM 39.2 °F - 32.0 °F 75% 30.20 in 10.0 mi Calm Calm - N/A   Clear
5:35 AM 37.4 °F - 32.0 °F 81% 30.20 in 10.0 mi Calm Calm - N/A   Clear
5:55 AM 37.4 °F - 32.0 °F 81% 30.20 in 10.0 mi Calm Calm - N/A   Clear
6:15 AM 37.4 °F - 32.0 °F 81% 30.20 in 10.0 mi Calm Calm - N/A   Clear
6:35 AM 37.4 °F - 32.0 °F 81% 30.21 in 10.0 mi Calm Calm - N/A   Clear
6:55 AM 37.4 °F - 32.0 °F 81% 30.21 in 10.0 mi Calm Calm - N/A   Clear
7:15 AM 37.4 °F - 32.0 °F 81% 30.21 in 10.0 mi Calm Calm - N/A   Clear
7:35 AM 37.4 °F - 32.0 °F 81% 30.22 in 10.0 mi Calm Calm - N/A   Clear
7:55 AM 37.4 °F - 32.0 °F 81% 30.22 in 10.0 mi Calm Calm - N/A   Clear
8:15 AM 41.0 °F - 32.0 °F 70% 30.23 in 10.0 mi Calm Calm - N/A   Clear
8:35 AM 44.6 °F - 33.8 °F 66% 30.23 in 10.0 mi Calm Calm - N/A   Clear
8:55 AM 51.8 °F - 33.8 °F 50% 30.24 in 10.0 mi Calm Calm - N/A   Clear
9:15 AM 60.8 °F - 28.4 °F 29% 30.24 in 10.0 mi South 10.4 mph - N/A   Clear
9:35 AM 64.4 °F - 30.2 °F 28% 30.24 in 10.0 mi South 9.2 mph - N/A   Clear
9:55 AM 66.2 °F - 28.4 °F 24% 30.24 in 10.0 mi South 13.8 mph - N/A   Clear
10:15 AM 69.8 °F - 28.4 °F 21% 30.24 in 10.0 mi South 13.8 mph - N/A   Clear
10:35 AM 71.6 °F - 28.4 °F 20% 30.24 in 10.0 mi South 13.8 mph - N/A   Clear
10:55 AM 73.4 °F - 28.4 °F 19% 30.24 in 10.0 mi South 16.1 mph - N/A   Clear
11:15 AM 73.4 °F - 28.4 °F 19% 30.24 in 10.0 mi South 16.1 mph 20.7 mph N/A   Clear
11:35 AM 75.2 °F - 26.6 °F 17% 30.24 in 10.0 mi South 18.4 mph 23.0 mph N/A   Clear
11:55 AM 77.0 °F - 26.6 °F 16% 30.23 in 10.0 mi South 16.1 mph 20.7 mph N/A   Clear
12:15 PM 78.8 °F - 26.6 °F 15% 30.22 in 10.0 mi South 13.8 mph 21.9 mph N/A   Clear
12:35 PM 78.8 °F - 26.6 °F 15% 30.22 in 10.0 mi South 19.6 mph - N/A   Clear
12:55 PM 80.6 °F - 28.4 °F 15% 30.20 in 10.0 mi SSW 12.7 mph 17.3 mph N/A   Clear
1:15 PM 80.6 °F - 28.4 °F 15% 30.19 in 10.0 mi SSW 10.4 mph 18.4 mph N/A   Clear
1:35 PM 82.4 °F - 28.4 °F 14% 30.18 in 10.0 mi South 13.8 mph 19.6 mph N/A   Clear
1:55 PM 82.4 °F - 28.4 °F 14% 30.17 in 10.0 mi SSW 9.2 mph 17.3 mph N/A   Clear
2:15 PM 82.4 °F - 26.6 °F 13% 30.15 in 10.0 mi SW 11.5 mph 19.6 mph N/A   Clear
2:35 PM 84.2 °F - 28.4 °F 13% 30.15 in 10.0 mi SSW 15.0 mph 18.4 mph N/A   Clear
2:55 PM 84.2 °F - 28.4 °F 13% 30.13 in 10.0 mi SSW 11.5 mph 17.3 mph N/A   Clear
3:15 PM 84.2 °F - 26.6 °F 12% 30.12 in 10.0 mi South 12.7 mph 20.7 mph N/A   Clear
3:35 PM 84.2 °F - 26.6 °F 12% 30.11 in 10.0 mi SSW 12.7 mph 18.4 mph N/A   Clear
3:55 PM 84.2 °F - 26.6 °F 12% 30.10 in 10.0 mi South 12.7 mph 24.2 mph N/A   Clear
4:15 PM 84.2 °F - 26.6 °F 12% 30.09 in 10.0 mi SSW 12.7 mph 17.3 mph N/A   Clear
4:35 PM 86.0 °F - 26.6 °F 12% 30.08 in 10.0 mi SSW 11.5 mph 20.7 mph N/A   Clear
4:55 PM 86.0 °F - 26.6 °F 12% 30.07 in 10.0 mi South 11.5 mph - N/A   Clear
5:15 PM 86.0 °F - 26.6 °F 12% 30.06 in 10.0 mi South 6.9 mph 18.4 mph N/A   Clear
5:35 PM 86.0 °F - 26.6 °F 12% 30.05 in 10.0 mi SSW 13.8 mph 18.4 mph N/A   Clear
5:55 PM 86.0 °F - 26.6 °F 12% 30.05 in 10.0 mi South 13.8 mph 20.7 mph N/A   Clear
6:15 PM 84.2 °F - 24.8 °F 11% 30.05 in 10.0 mi South 10.4 mph 17.3 mph N/A   Clear
6:35 PM 84.2 °F - 26.6 °F 12% 30.04 in 10.0 mi SSE 13.8 mph - N/A   Clear
6:55 PM 84.2 °F - 24.8 °F 11% 30.04 in 10.0 mi South 12.7 mph 17.3 mph N/A   Clear
7:15 PM 84.2 °F - 26.6 °F 12% 30.03 in 10.0 mi South 13.8 mph - N/A   Clear
7:35 PM 82.4 °F - 28.4 °F 14% 30.03 in 10.0 mi South 16.1 mph 21.9 mph N/A   Clear
7:55 PM 80.6 °F - 30.2 °F 16% 30.03 in 10.0 mi South 12.7 mph 18.4 mph N/A   Clear
8:15 PM 80.6 °F - 30.2 °F 16% 30.03 in 10.0 mi South 8.1 mph - N/A   Clear
8:35 PM 78.8 °F - 32.0 °F 18% 30.04 in 10.0 mi South 8.1 mph - N/A   Clear
8:55 PM 77.0 °F - 32.0 °F 19% 30.04 in 10.0 mi South 9.2 mph - N/A   Clear
9:15 PM 75.2 °F - 32.0 °F 21% 30.05 in 10.0 mi South 6.9 mph - N/A   Clear
9:35 PM 75.2 °F - 32.0 °F 21% 30.06 in 10.0 mi South 6.9 mph - N/A   Clear
9:55 PM 73.4 °F - 32.0 °F 22% 30.07 in 10.0 mi SSE 6.9 mph - N/A   Clear
10:15 PM 73.4 °F - 32.0 °F 22% 30.07 in 10.0 mi South 6.9 mph - N/A   Clear
10:35 PM 71.6 °F - 32.0 °F 23% 30.08 in 10.0 mi South 4.6 mph - N/A   Clear
10:55 PM 69.8 °F - 32.0 °F 25% 30.08 in 10.0 mi South 4.6 mph - N/A   Clear
11:15 PM 69.8 °F - 32.0 °F 25% 30.08 in 10.0 mi South 4.6 mph - N/A   Clear
11:35 PM 69.8 °F - 32.0 °F 25% 30.08 in 10.0 mi South 5.8 mph - N/A   Clear
11:55 PM 69.8 °F - 32.0 °F 25% 30.07 in 10.0 mi South 5.8 mph - N/A   Clear